星链-5976 (STARLINK-5976 )

导读 | 豆包AI

STARLINK-5976是美国太空探索技术公司(SpaceX)星链互联网星座中的一颗卫星,于北京时间2023年4月27日8时发射入轨。星链项目旨在通过近地轨道卫星群提供全球高速互联网接入服务,STARLINK-5976承担着为地面用户提供宽带网络服务的职能,进一步拓展了星链星座的覆盖规模与服务能力。

基本信息
目录编号:
56343
目录名称:
STARLINK-5976
国际标识:
2023-058AC
轨道中心:
EARTH
卫星名称:
星链-5976
卫星全名:
星链-5976 (STARLINK-5976 )
卫星状态:
在轨 (已飞行1053 天)
发射日期:
2023-04-27 UTC
国别 :
美国 (US)
星等 :
--
轨道信息
数据来源 国际轨道数据
星历时间: 2026-03-15T14:22:44+0800
13小时前
查看轨道信息
半长轴: 6927.601km
偏心率: 0.0002258
轨道倾角: 97.604°
近地点辐角 84.469°
升交点赤经 76.684°
平近点角 275.679°
近地点: 547.899km
远地点: 551.029km
周期: 95.639分钟
每日圈数: 15.056655
详细信息
固有亮度:
5
最大亮度:
2.5
卫星平台:
Starlink v1.5
覆盖范围:
全球
运营商:
太空探索技术公司
运营商所在国:
美国
制造商(研发单位):
太空探索技术公司
制造商所在国:
美国
使用方式:
暂无
卫星简介
星链(Starlink)计划是由太空探索技术公司(SpaceX)提出的一个巨型低轨卫星互联网星座项目,计划在2019年至2024年间在太空搭建由约1.2万颗卫星组成的“星链”网络,其中1584颗将部署在地球上空550千米处的近地轨道,并从2020年开始工作。该卫星仍在工作。
2D轨道图
3D轨道图
轨道高度分析图
轨道倾角分析图
轨道综合分析图
查看轨道综合分析图